Regional Weather Roundup
Issued by NWS

Home | Current Version | Previous Version | Graphics & Text | Print | Product List | Glossary On
Versions: 1 2 3 4 5 6 7 8 9 10 11 12 13 14 15 16 17 18 19 20 21 22 23 24 25 26 27 28 29 30 31 32 33 34 35 36 37 38 39 40 41 42 43 44 45 46 47 48 49 50
000
ASUS43 KBIS 270359
RWRND

NORTH DAKOTA REGIONAL WEATHER ROUNDUP
NATIONAL WEATHER SERVICE BISMARCK ND
1000 PM CST WED NOV 26 2014

NOTE: "FAIR" INDICATES FEW OR NO CLOUDS BELOW 12,000 FEET WITH NO
SIGNIFICANT WEATHER AND/OR OBSTRUCTIONS TO VISIBILITY.


NDZ001>003-009>011-017-270500-
NORTHWEST NORTH DAKOTA

CITY           SKY/WX    TMP DP  RH WIND       PRES   REMARKS
WILLISTON      CLOUDY     8   3  80 CALM      30.38S
MINOT          CLOUDY   -13 -18  78 S5        30.44S WCI -25
$$

NDZ018>021-031>035-040>046-270500-
SOUTHWEST NORTH DAKOTA

CITY           SKY/WX    TMP DP  RH WIND       PRES   REMARKS
BISMARCK       CLOUDY    -5 -10  79 E3        30.47R
DICKINSON      PTCLDY    10   6  84 SE8       30.31S WCI  -2
GARRISON         N/A     -3  -7  82 E7        30.42F WCI -16
HETTINGER ARPT CLOUDY    11   8  88 SE10      30.34R WCI  -3
$$

NDZ004>008-012>016-024-026-027-054-270500-
NORTHEAST NORTH DAKOTA

CITY           SKY/WX    TMP DP  RH WIND       PRES   REMARKS
GRAND FORKS    PTCLDY   -13 -17  82 NW3       30.55S
DEVILS LAKE    PTCLDY    -9 -20  59 CALM      30.45S
$$

NDZ022-023-025-028>030-036>039-047>053-270500-
SOUTHEAST NORTH DAKOTA

CITY           SKY/WX    TMP DP  RH WIND       PRES   REMARKS
FARGO          PTCLDY    -6 -11  79 CALM      30.54R
JAMESTOWN      MOCLDY   -20 -23  86 NW6       30.48R WCI -35
$$




USA.gov is the U.S. government's official web portal to all federal, state and local government web resources and services.